When you browse on this site, cookies collect data to enhance your experience and personalize the content and advertising you see.
Visit our Privacy Policy to learn more. By continuing to use the site, you agree to this use of cookies and data.
  • In Austria
  • List of Countries
  • For 7 days
  • Water Temperature
  • Weather Map
  • News
  • Weather Widgets
  • user-avatar
    Login

    Hourly Weather Sharan

    Today, 20 February, Thursday

    Time Temperature Precipitation Wind Pressure Humidity
    00:00 -9°C° 0 mm 2 mps 581 mmHg 67%
    01:00 -9°C° 0 mm 2 mps 581 mmHg 65%
    02:00 -10°C° 0 mm 2 mps 581 mmHg 64%
    03:00 -10°C° 0 mm 2 mps 581 mmHg 65%
    04:00 -10°C° 0 mm 2 mps 581 mmHg 65%
    05:00 -9°C° 0 mm 1 mps 581 mmHg 65%
    06:00 -9°C° 0 mm 2 mps 581 mmHg 66%
    07:00 -9°C° 0 mm 2 mps 582 mmHg 68%
    08:00 -9°C° 0 mm 2 mps 582 mmHg 69%
    09:00 -7°C° 0 mm 2 mps 583 mmHg 70%
    10:00 -5°C° 0 mm 2 mps 584 mmHg 71%
    11:00 -3°C° 0 mm 2 mps 585 mmHg 72%
    12:00 -2°C° 0 mm 2 mps 585 mmHg 76%
    13:00 -1°C° 0 mm 2 mps 585 mmHg 80%
    14:00 0°C° 0 mm 3 mps 585 mmHg 84%
    15:00 0°C° 0 mm 3 mps 584 mmHg 81%
    16:00 -1°C° 0 mm 2 mps 584 mmHg 78%
    17:00 -1°C° 0 mm 2 mps 584 mmHg 76%
    18:00 -3°C° 0 mm 2 mps 584 mmHg 75%
    19:00 -4°C° 0 mm 2 mps 584 mmHg 74%
    20:00 -5°C° 0 mm 2 mps 584 mmHg 73%
    21:00 -5°C° 0 mm 2 mps 584 mmHg 72%
    22:00 -5°C° 0 mm 2 mps 584 mmHg 72%
    23:00 -6°C° 0 mm 2 mps 584 mmHg 72%

    Tomorrow, 21 February, Friday

    Time Temperature Precipitation Wind Pressure Humidity
    00:00 -6°C° 0 mm 2 mps 584 mmHg 70%
    01:00 -6°C° 0 mm 2 mps 584 mmHg 69%
    02:00 -6°C° 0 mm 2 mps 583 mmHg 67%
    03:00 -6°C° 0 mm 2 mps 583 mmHg 65%
    04:00 -6°C° 0 mm 2 mps 583 mmHg 63%
    05:00 -7°C° 0 mm 2 mps 583 mmHg 61%
    06:00 -6°C° 0 mm 2 mps 583 mmHg 59%
    07:00 -5°C° 0 mm 2 mps 584 mmHg 57%
    08:00 -5°C° 0 mm 2 mps 585 mmHg 55%
    09:00 -3°C° 0 mm 2 mps 586 mmHg 60%
    10:00 -1°C° 0 mm 2 mps 586 mmHg 65%
    11:00 +3°C° 0 mm 1 mps 587 mmHg 70%
    18:00 +2°C° 0 mm 0 mps 586 mmHg 62%
    19:00 +1°C° 0 mm 0 mps 586 mmHg 61%
    20:00 0°C° 0 mm 0 mps 586 mmHg 60%
    21:00 -1°C° 0 mm 0 mps 586 mmHg 60%
    22:00 0°C° 0 mm 1 mps 586 mmHg 61%
    23:00 0°C° 0 mm 1 mps 586 mmHg 61%

    Day after tomorrow, 22 February, Saturday

    Time Temperature Precipitation Wind Pressure Humidity
    00:00 0°C° 0 mm 1 mps 586 mmHg 62%
    01:00 0°C° 0 mm 1 mps 586 mmHg 62%
    02:00 0°C° 0 mm 1 mps 586 mmHg 63%
    03:00 -1°C° 0 mm 1 mps 586 mmHg 63%
    04:00 -2°C° 0 mm 0 mps 586 mmHg 63%
    05:00 -2°C° 0 mm 0 mps 585 mmHg 63%
    06:00 -2°C° 0 mm 0 mps 586 mmHg 64%
    07:00 -2°C° 0 mm 0 mps 586 mmHg 64%
    08:00 -2°C° 0 mm 0 mps 587 mmHg 64%
    09:00 0°C° 0 mm 0 mps 587 mmHg 72%
    10:00 +1°C° 0 mm 0 mps 588 mmHg 79%
    11:00 +2°C° 0 mm 0 mps 588 mmHg 87%
    12:00 +2°C° 0 mm 0 mps 588 mmHg 89%
    13:00 +3°C° 0 mm 0 mps 587 mmHg 91%
    14:00 +3°C° 0 mm 0 mps 587 mmHg 93%
    15:00 +2°C° 0 mm 0 mps 586 mmHg 85%
    16:00 +3°C° 0 mm 1 mps 586 mmHg 76%
    17:00 +3°C° 0 mm 1 mps 586 mmHg 67%
    18:00 +2°C° 0 mm 1 mps 586 mmHg 67%
    19:00 0°C° 0 mm 1 mps 586 mmHg 66%
    20:00 -1°C° 0 mm 1 mps 586 mmHg 65%
    21:00 -1°C° 0 mm 1 mps 586 mmHg 66%
    22:00 -1°C° 0 mm 1 mps 586 mmHg 66%
    23:00 -1°C° 0 mm 1 mps 586 mmHg 67%

    23 February, Sunday

    Time Temperature Precipitation Wind Pressure Humidity
    00:00 -2°C° 0 mm 1 mps 585 mmHg 67%
    01:00 -2°C° 0 mm 1 mps 585 mmHg 68%
    02:00 -2°C° 0 mm 1 mps 585 mmHg 68%
    03:00 -2°C° 0 mm 1 mps 585 mmHg 68%
    04:00 -3°C° 0 mm 1 mps 584 mmHg 68%
    05:00 -3°C° 0 mm 1 mps 584 mmHg 68%
    06:00 -3°C° 0 mm 1 mps 584 mmHg 67%
    07:00 -3°C° 0 mm 1 mps 585 mmHg 66%
    08:00 -2°C° 0 mm 1 mps 585 mmHg 65%
    09:00 -1°C° 0 mm 1 mps 586 mmHg 67%
    10:00 +1°C° 0 mm 1 mps 586 mmHg 69%
    11:00 +2°C° 0 mm 1 mps 587 mmHg 71%
    12:00 +3°C° 0 mm 1 mps 586 mmHg 77%
    13:00 +2°C° 0 mm 0 mps 586 mmHg 82%
    14:00 +3°C° 0 mm 0 mps 586 mmHg 87%
    15:00 +2°C° 0 mm 0 mps 585 mmHg 79%
    16:00 +1°C° 0 mm 0 mps 585 mmHg 70%
    17:00 +1°C° 0 mm 0 mps 584 mmHg 62%
    18:00 0°C° 0 mm 0 mps 584 mmHg 61%
    19:00 -1°C° 0 mm 0 mps 584 mmHg 60%
    20:00 -2°C° 0 mm 0 mps 584 mmHg 59%
    21:00 -2°C° 0 mm 0 mps 584 mmHg 59%
    22:00 -2°C° 0 mm 1 mps 584 mmHg 60%
    23:00 -2°C° 0 mm 1 mps 584 mmHg 60%

    24 February, Monday

    Time Temperature Precipitation Wind Pressure Humidity
    00:00 -2°C° 0 mm 1 mps 584 mmHg 60%
    01:00 -2°C° 0 mm 1 mps 584 mmHg 60%
    02:00 -3°C° 0 mm 1 mps 583 mmHg 61%
    03:00 -3°C° 0 mm 1 mps 583 mmHg 60%
    04:00 -3°C° 0 mm 1 mps 583 mmHg 59%
    05:00 -3°C° 0 mm 1 mps 582 mmHg 59%
    06:00 -3°C° 0 mm 1 mps 583 mmHg 58%
    07:00 -3°C° 0 mm 1 mps 583 mmHg 58%
    08:00 -3°C° 0 mm 1 mps 583 mmHg 58%
    09:00 -1°C° 0 mm 1 mps 584 mmHg 61%
    10:00 0°C° 0 mm 1 mps 584 mmHg 64%
    11:00 +2°C° 0 mm 1 mps 585 mmHg 67%
    12:00 +2°C° 0 mm 1 mps 584 mmHg 72%
    13:00 +3°C° 0 mm 1 mps 584 mmHg 77%
    14:00 +3°C° 0 mm 1 mps 584 mmHg 83%
    15:00 +3°C° 0 mm 1 mps 583 mmHg 75%
    16:00 +2°C° 0 mm 1 mps 583 mmHg 67%
    17:00 +2°C° 0 mm 1 mps 582 mmHg 59%
    18:00 +1°C° 0 mm 1 mps 582 mmHg 58%
    19:00 0°C° 0 mm 1 mps 583 mmHg 57%
    20:00 -1°C° 0 mm 1 mps 583 mmHg 56%
    21:00 -1°C° 0 mm 1 mps 583 mmHg 56%
    22:00 -1°C° 0 mm 1 mps 583 mmHg 57%
    23:00 -2°C° 0 mm 1 mps 583 mmHg 57%

    25 February, Tuesday

    Time Temperature Precipitation Wind Pressure Humidity
    00:00 -2°C° 0 mm 1 mps 583 mmHg 57%
    01:00 -2°C° 0 mm 1 mps 582 mmHg 57%
    02:00 -3°C° 0 mm 1 mps 582 mmHg 57%
    03:00 -3°C° 0 mm 1 mps 582 mmHg 57%
    04:00 -3°C° 0 mm 1 mps 582 mmHg 57%
    05:00 -3°C° 0 mm 1 mps 582 mmHg 57%
    06:00 -3°C° 0 mm 1 mps 582 mmHg 57%
    07:00 -3°C° 0 mm 1 mps 583 mmHg 58%
    08:00 -2°C° 0 mm 1 mps 583 mmHg 58%
    09:00 -1°C° 0 mm 1 mps 584 mmHg 61%
    10:00 +1°C° 0 mm 1 mps 584 mmHg 64%
    11:00 +2°C° 0 mm 1 mps 585 mmHg 67%
    12:00 +3°C° 0 mm 1 mps 584 mmHg 72%
    13:00 +3°C° 0 mm 1 mps 584 mmHg 76%
    14:00 +4°C° 0 mm 1 mps 584 mmHg 80%
    15:00 +3°C° 0 mm 1 mps 584 mmHg 72%
    16:00 +2°C° 0 mm 0 mps 583 mmHg 63%
    17:00 +1°C° 0 mm 0 mps 583 mmHg 54%
    18:00 +1°C° 0 mm 0 mps 583 mmHg 52%
    19:00 +1°C° 0 mm 1 mps 583 mmHg 51%
    20:00 0°C° 0 mm 1 mps 583 mmHg 50%
    21:00 0°C° 0 mm 1 mps 583 mmHg 50%
    22:00 0°C° 0 mm 1 mps 583 mmHg 49%
    23:00 +1°C° 0 mm 1 mps 584 mmHg 49%
    Show more